Wind_Speed
17 17 17 17 18 17 18 19 20 18 17 17 16 16 14 13 12 12 12 11 9 9 10 10 11 11 11 11 11 11 11 11 11 11 11 10 10 9 9 8 8 8 8 8 8 8 8 8 8
17 16 16 17 18 17 19 20 20 18 17 17 17 16 15 13 12 12 11 10 8 8 9 9 10 11 11 11 11 11 11 11 11 11 10 9 9 9 8 8 8 8 8 8 8 8 8 8 8
15 15 15 16 17 18 19 20 20 19 17 17 17 16 15 13 12 11 10 9 7 7 8 9 10 10 10 10 11 11 11 10 10 10 10 9 8 8 8 8 8 7 7 7 7 8 7 7 7
14 14 15 16 17 18 19 20 21 20 18 17 17 17 15 13 11 10 10 8 7 7 8 9 9 10 10 10 10 10 10 10 10 10 9 9 8 8 8 7 7 7 6 7 7 7 7 7 7
13 13 14 15 17 18 19 19 20 20 18 17 17 17 15 13 11 10 9 8 7 7 8 9 9 9 9 9 9 9 9 9 9 9 9 9 8 8 7 7 7 6 6 7 6 6 6 7 6
13 14 15 16 16 17 18 19 20 20 18 18 17 17 15 13 11 10 9 9 8 8 8 8 8 8 8 8 8 8 8 8 8 8 8 8 8 7 7 7 6 6 6 6 6 6 6 6 6
11 13 15 15 16 16 18 18 19 19 18 18 17 16 15 13 12 11 10 10 9 8 8 8 8 8 8 8 8 7 7 7 7 7 7 7 7 7 7 6 6 6 6 6 5 5 5 5 6
11 12 14 16 17 17 18 18 18 18 18 17 17 16 16 14 13 11 11 10 9 9 8 8 7 7 8 8 8 7 7 7 7 6 6 6 6 6 6 6 6 5 5 5 4 5 4 4 5
10 12 13 14 16 17 18 18 17 17 17 17 17 17 16 14 14 12 11 10 10 9 9 8 7 7 7 7 7 7 7 7 6 5 5 6 6 6 5 5 5 5 4 4 4 4 3 4 4
9 11 12 13 16 17 17 17 17 17 17 17 17 16 16 15 14 13 12 11 10 10 9 8 7 6 7 7 7 7 7 7 6 5 5 5 5 5 4 4 4 3 3 3 3 3 3 3 3
7 9 10 12 14 15 16 17 16 16 16 16 16 16 15 14 14 13 13 12 11 10 9 8 7 7 6 6 7 7 7 6 6 5 4 4 3 3 3 2 2 2 2 2 2 2 2 2 2
6 8 9 11 13 14 15 16 16 16 15 15 15 15 15 14 14 14 13 12 11 10 9 9 8 7 7 6 7 7 7 6 5 5 4 3 2 2 2 2 1 1 1 1 1 1 1 2 2
4 7 8 9 11 13 14 15 15 15 15 15 15 15 14 14 14 14 13 12 11 10 9 9 9 8 7 7 7 7 7 6 5 4 4 3 2 2 2 1 1 1 0 1 1 1 2 2 1
3 4 6 7 9 11 13 13 13 14 14 14 14 15 14 14 14 14 14 12 12 11 10 9 9 8 7 7 7 7 7 7 5 5 4 3 3 3 2 1 1 1 1 2 2 2 2 2 2
4 3 4 5 7 9 10 11 12 13 13 13 13 14 14 13 14 14 14 14 13 11 10 9 9 8 7 6 6 6 6 6 5 5 5 4 3 3 3 3 3 2 2 3 4 4 4 4 3
6 4 3 3 4 7 8 10 11 11 12 11 12 13 13 12 13 13 14 14 13 12 11 10 10 9 7 7 7 7 6 6 6 5 5 5 4 4 3 3 3 3 4 3 4 5 5 5 5
8 6 4 0 2 5 6 8 8 10 11 11 11 12 12 11 11 12 13 14 13 12 11 10 9 9 8 8 8 7 6 6 6 6 5 5 5 4 4 4 4 4 5 4 4 4 5 6 7
10 8 6 4 1 2 3 5 7 9 9 10 10 11 11 11 11 11 12 13 12 11 10 9 9 8 8 8 8 8 7 6 6 6 6 6 5 5 5 5 6 6 6 5 6 6 6 7 8
14 11 9 7 5 3 2 3 5 6 7 8 8 9 9 10 10 10 11 11 10 9 9 9 9 8 8 8 8 8 7 6 6 7 6 6 6 6 5 6 6 7 7 7 7 8 8 8 8
16 14 12 11 8 7 4 3 4 5 5 5 7 8 9 9 10 10 10 10 10 9 8 8 9 8 8 8 8 7 7 7 7 7 7 6 6 7 6 7 7 8 8 8 8 9 10 9 9
19 17 15 13 11 9 8 5 4 4 4 5 6 8 8 9 10 10 9 9 9 9 8 8 9 9 9 9 8 8 7 8 8 8 7 7 7 8 8 9 8 8 9 9 10 10 10 11 11
20 18 17 15 13 12 10 7 4 4 4 4 6 8 8 8 9 10 9 9 9 8 9 9 10 10 10 10 9 8 8 9 8 8 8 8 8 8 9 9 9 9 10 11 11 12 12 12 13
22 20 18 17 16 14 12 10 6 5 4 4 6 7 8 9 8 9 9 9 9 9 10 10 11 11 11 10 8 8 9 8 8 8 8 8 9 9 9 9 9 10 11 11 12 12 12 12 12
23 22 21 19 17 16 13 12 7 6 5 4 6 6 7 8 9 9 8 8 8 9 10 11 11 11 11 9 8 9 9 9 9 9 9 9 10 10 10 10 9 10 10 11 10 11 11 12 13
25 24 23 22 19 17 15 13 9 7 7 6 6 6 7 8 9 8 8 9 8 9 10 11 11 11 10 9 8 8 9 9 9 9 9 10 10 10 11 11 11 11 10 10 10 11 12 12 13
27 26 25 24 21 19 17 14 10 8 8 7 6 7 8 8 8 8 9 10 9 10 10 10 10 11 10 10 10 9 9 9 10 10 10 11 11 11 12 12 11 11 11 11 11 11 12 13 13
28 27 26 25 23 22 20 15 12 11 10 8 7 7 7 8 8 8 9 10 11 12 10 10 10 10 10 10 10 10 10 10 10 10 10 11 11 12 12 12 12 11 11 12 11 12 12 13 14
29 28 27 26 25 23 21 17 13 12 11 10 8 7 8 8 8 8 9 11 12 12 11 9 10 10 10 10 10 10 10 11 11 11 11 11 12 12 12 12 13 12 12 12 12 12 12 13 14
30 29 28 27 25 23 21 18 15 14 13 11 10 8 8 8 9 9 10 11 11 11 10 9 9 9 10 10 10 10 11 11 11 11 11 12 12 12 13 14 14 14 13 12 12 12 12 12 13
30 29 29 28 26 24 22 18 16 15 14 12 11 10 9 10 10 10 10 11 12 12 9 9 9 9 10 10 10 10 11 11 11 11 12 12 13 13 13 14 13 13 13 12 11 12 12 12 13
Wind_Direction
74 72 71 70 68 67 68 69 68 65 63 63 64 66 69 71 68 67 65 64 63 64 65 69 71 69 68 68 68 66 63 61 62 62 62 64 66 66 68 74 79 80 78 80 85 89 91 94 94
74 72 71 70 69 66 66 68 66 62 58 58 59 60 64 64 63 64 63 62 60 62 64 67 70 70 68 68 68 67 64 63 63 64 65 66 67 68 68 72 76 77 76 77 80 85 88 89 91
73 69 68 69 69 67 64 64 63 59 54 53 54 56 57 56 59 62 62 62 61 64 68 68 69 70 70 70 69 68 66 65 63 63 65 67 69 71 71 74 76 77 78 80 82 84 86 86 88
73 70 67 67 67 67 65 62 59 55 51 51 53 54 54 52 55 60 62 63 62 66 69 69 68 68 69 70 70 70 69 66 64 64 65 67 70 71 73 76 78 79 81 83 83 85 86 87 89
73 70 68 68 67 67 65 62 58 51 49 49 51 52 50 48 51 56 59 59 59 65 69 71 69 68 68 68 67 68 69 68 67 66 66 68 70 70 71 74 78 80 80 83 84 85 89 89 89
72 70 70 67 63 63 64 61 56 51 48 47 49 50 48 47 48 53 56 56 59 63 68 71 69 69 67 65 65 66 68 67 66 67 67 69 72 73 74 77 80 81 80 81 84 86 87 88 93
70 65 65 63 60 60 61 59 55 51 48 46 47 49 48 48 47 48 50 52 55 58 63 67 68 67 66 64 66 65 62 61 64 67 68 69 69 72 77 81 83 85 85 83 83 85 87 90 94
69 65 62 61 60 58 59 59 54 51 49 47 47 46 46 47 45 47 48 51 53 56 60 63 67 67 67 65 66 62 57 57 60 64 66 68 69 73 78 81 83 84 84 82 81 85 88 92 96
71 65 60 61 60 57 57 58 55 52 49 46 46 46 45 45 43 44 49 51 53 55 58 60 65 66 66 66 64 59 58 56 57 61 66 68 72 77 85 83 81 82 83 81 80 87 87 92 98
73 62 58 61 61 56 55 56 55 52 48 46 44 45 43 43 41 44 49 52 54 56 58 57 58 59 60 59 55 54 56 52 50 52 66 68 71 76 83 82 85 86 86 86 87 92 94 96 98
75 65 61 63 63 56 52 52 52 51 47 42 40 41 43 43 42 43 48 49 51 53 55 55 54 54 56 54 52 50 51 50 49 50 58 65 65 66 71 76 85 85 92 98 99 99 100 104 101
77 73 67 65 64 58 53 50 51 48 45 41 38 37 40 42 42 41 42 43 43 45 51 54 55 54 55 55 51 44 43 42 44 46 49 47 46 44 40 50 59 70 95 122 117 111 108 115 116
83 85 75 68 65 64 56 50 49 46 43 40 38 35 38 40 41 40 38 40 40 42 51 53 52 53 53 51 47 41 38 39 43 43 38 30 25 22 13 42 44 17 328 239 217 196 169 155 167
128 98 84 74 68 63 57 51 48 44 41 39 37 36 36 39 39 38 34 36 41 45 51 51 49 48 46 43 44 44 40 37 36 35 27 18 1 357 6 357 334 306 284 259 235 234 221 209 211
169 139 107 85 73 64 56 52 46 41 38 36 37 37 36 37 38 36 34 36 40 43 48 47 46 44 39 35 37 36 32 31 31 29 19 10 354 343 342 330 300 278 268 257 245 242 242 235 230
198 186 149 83 69 66 58 52 43 36 31 28 31 35 36 34 35 34 33 35 38 41 42 40 39 36 34 32 28 24 22 18 13 12 10 1 343 328 321 318 301 282 269 260 252 243 243 241 240
209 203 197 190 40 56 57 47 38 31 25 21 25 31 33 32 32 31 31 31 31 33 35 37 33 31 29 26 22 14 14 15 13 10 4 357 348 330 310 307 301 286 280 268 266 263 256 255 251
217 223 230 239 278 24 37 35 30 23 18 17 20 25 27 29 29 28 26 23 22 24 24 25 21 18 17 16 11 9 11 9 4 357 349 343 336 325 311 308 303 288 276 271 271 266 264 264 257
225 230 238 243 256 277 319 10 15 10 8 14 15 16 13 16 18 19 21 17 18 17 14 13 6 2 4 359 357 359 359 356 352 347 340 335 330 324 310 306 298 289 276 272 275 264 261 263 261
227 234 242 248 257 271 284 315 338 352 349 3 3 3 1 3 7 7 10 15 14 11 7 6 2 355 355 350 349 349 346 340 336 331 333 328 321 317 307 302 293 288 280 274 272 265 261 262 262
231 237 242 249 255 265 274 286 307 323 324 344 349 350 352 353 359 2 1 2 4 0 3 0 353 353 349 346 345 341 339 336 329 326 332 332 323 317 308 298 291 289 287 279 271 263 260 261 261
233 238 239 245 254 262 268 277 282 295 303 325 344 353 352 348 348 350 350 353 357 359 2 359 353 350 349 349 345 341 338 337 333 328 329 329 326 324 316 304 295 294 293 287 277 269 262 262 263
232 237 239 245 251 257 264 269 273 288 303 317 332 340 344 344 341 340 343 346 354 353 353 355 350 345 347 350 347 342 338 335 334 331 329 329 327 328 326 317 302 299 297 289 279 273 266 262 263
231 235 238 244 249 254 260 265 267 283 292 307 325 328 336 338 337 332 333 338 342 345 347 348 346 346 347 348 346 344 342 337 334 330 328 329 330 329 328 323 315 306 300 297 286 276 268 264 265
230 232 236 240 244 248 253 259 269 275 274 285 303 316 330 333 329 325 328 332 339 340 342 344 345 346 342 339 333 332 335 332 330 328 326 325 323 323 324 322 317 310 304 299 291 282 273 269 271
230 232 236 240 244 246 251 256 263 261 269 279 296 310 316 324 325 329 335 335 334 335 334 338 341 343 339 331 327 324 326 326 326 324 323 321 317 317 320 320 316 310 305 301 294 285 277 278 277
229 231 235 239 243 245 250 256 254 256 264 275 287 300 308 313 320 328 332 332 331 329 328 330 336 339 337 332 327 330 329 328 325 321 320 320 318 316 316 317 317 314 310 306 299 289 283 282 284
228 230 233 237 240 245 249 251 253 253 259 268 276 293 308 318 320 327 329 328 326 323 322 323 330 335 336 334 331 330 334 336 334 330 324 321 319 318 318 317 315 313 310 308 307 298 292 288 288
228 229 232 236 241 245 249 250 251 251 257 263 272 286 300 314 321 321 327 331 328 323 318 318 324 331 332 331 330 331 334 335 334 332 329 324 322 320 318 317 314 314 313 309 307 303 299 295 292
228 231 233 236 240 245 249 249 249 251 254 262 271 282 292 307 316 319 323 326 324 322 316 316 319 324 327 327 329 332 332 333 331 329 328 325 322 321 320 316 314 313 313 313 311 308 303 300 297
Height
5901 5900 5900 5900 5900 5898 5896 5895 5894 5894 5894 5893 5893 5892 5892 5892 5892 5894 5892 5890 5890 5889 5889 5888 5887 5887 5887 5886 5886 5886 5887 5886 5886 5886 5887 5887 5887 5887 5887 5888 5888 5888 5888 5889 5889 5889 5889 5890 5890
5903 5903 5904 5903 5901 5900 5899 5897 5896 5896 5896 5895 5894 5894 5893 5893 5893 5893 5892 5892 5892 5891 5890 5889 5889 5888 5888 5888 5888 5888 5888 5888 5888 5888 5888 5888 5888 5889 5889 5889 5889 5889 5890 5890 5890 5890 5891 5891 5891
5906 5906 5906 5905 5903 5902 5901 5899 5898 5898 5898 5898 5896 5895 5895 5894 5894 5894 5893 5893 5893 5892 5891 5891 5890 5890 5889 5889 5889 5889 5889 5889 5889 5889 5889 5890 5890 5890 5890 5890 5891 5891 5891 5891 5891 5892 5892 5892 5893
5909 5909 5909 5907 5905 5904 5903 5901 5900 5900 5900 5900 5899 5897 5897 5897 5896 5895 5895 5895 5894 5893 5892 5892 5891 5891 5891 5890 5890 5890 5890 5890 5890 5890 5891 5891 5891 5891 5891 5892 5892 5892 5892 5892 5893 5893 5893 5893 5894
5911 5911 5911 5909 5907 5906 5905 5904 5903 5902 5902 5902 5901 5899 5899 5898 5898 5897 5896 5896 5895 5894 5893 5893 5892 5892 5892 5892 5891 5891 5891 5891 5891 5891 5891 5891 5892 5892 5892 5892 5893 5893 5893 5893 5894 5894 5894 5895 5895
5913 5913 5912 5911 5910 5909 5907 5906 5905 5905 5904 5904 5903 5902 5901 5900 5899 5898 5897 5897 5896 5895 5894 5893 5893 5893 5893 5893 5892 5892 5892 5892 5892 5892 5892 5892 5893 5893 5893 5893 5894 5894 5894 5894 5895 5895 5895 5896 5896
5916 5915 5914 5913 5912 5911 5910 5908 5907 5907 5907 5906 5905 5904 5902 5902 5901 5900 5898 5898 5897 5896 5895 5895 5894 5894 5894 5894 5893 5893 5893 5893 5893 5893 5893 5893 5894 5894 5894 5894 5894 5895 5895 5895 5896 5896 5896 5897 5897
5917 5917 5916 5915 5914 5913 5912 5911 5910 5910 5909 5908 5907 5906 5904 5904 5903 5901 5900 5899 5898 5897 5896 5896 5895 5895 5895 5895 5895 5894 5894 5894 5894 5894 5894 5894 5894 5894 5895 5895 5895 5896 5896 5896 5897 5897 5897 5897 5898
5918 5919 5917 5917 5916 5916 5915 5914 5913 5912 5911 5910 5909 5908 5907 5905 5904 5903 5901 5900 5899 5898 5897 5897 5896 5896 5896 5896 5896 5895 5895 5895 5895 5895 5895 5895 5895 5895 5895 5896 5896 5896 5897 5897 5897 5898 5898 5898 5898
5920 5920 5919 5919 5918 5918 5917 5917 5916 5915 5913 5912 5911 5910 5908 5907 5906 5904 5902 5901 5900 5899 5899 5898 5898 5898 5897 5897 5897 5896 5896 5895 5895 5895 5895 5895 5895 5896 5896 5896 5896 5897 5897 5897 5898 5898 5898 5898 5899
5921 5921 5921 5921 5920 5920 5919 5919 5918 5917 5916 5915 5913 5912 5910 5909 5907 5906 5904 5902 5901 5901 5900 5899 5899 5899 5899 5898 5898 5897 5896 5896 5896 5896 5896 5896 5896 5896 5896 5896 5897 5897 5897 5898 5898 5898 5898 5898 5899
5922 5923 5922 5922 5922 5921 5921 5920 5920 5919 5918 5917 5915 5913 5912 5911 5909 5907 5906 5904 5903 5902 5901 5900 5900 5900 5899 5899 5898 5898 5897 5897 5897 5896 5896 5896 5896 5896 5896 5896 5897 5897 5897 5898 5898 5898 5898 5898 5899
5923 5924 5924 5923 5923 5923 5922 5922 5921 5921 5920 5919 5917 5915 5914 5912 5911 5909 5907 5905 5904 5903 5902 5902 5901 5901 5900 5900 5899 5898 5898 5897 5897 5897 5896 5896 5896 5896 5896 5896 5896 5897 5897 5897 5897 5898 5898 5898 5899
5923 5924 5925 5924 5924 5924 5924 5923 5923 5923 5921 5920 5919 5917 5916 5914 5912 5911 5909 5907 5905 5904 5903 5903 5902 5902 5901 5901 5900 5899 5898 5898 5897 5897 5896 5896 5896 5896 5896 5896 5896 5896 5896 5896 5897 5897 5898 5898 5899
5924 5925 5925 5925 5926 5926 5926 5926 5925 5924 5923 5922 5920 5919 5917 5916 5914 5912 5910 5908 5907 5905 5905 5904 5903 5903 5902 5901 5901 5900 5899 5898 5897 5897 5896 5896 5896 5895 5895 5895 5895 5895 5896 5896 5896 5897 5897 5898 5898
5924 5925 5926 5926 5926 5926 5928 5927 5927 5926 5925 5924 5922 5920 5919 5917 5915 5914 5912 5910 5908 5907 5906 5905 5904 5904 5903 5902 5901 5900 5899 5899 5898 5897 5896 5896 5895 5895 5895 5895 5894 5894 5895 5895 5895 5896 5896 5897 5897
5923 5925 5925 5926 5926 5927 5928 5927 5927 5927 5926 5925 5923 5922 5920 5918 5917 5915 5913 5912 5910 5909 5908 5907 5906 5905 5904 5903 5902 5901 5900 5899 5898 5897 5896 5896 5895 5894 5894 5894 5894 5893 5894 5894 5895 5895 5895 5896 5896
5922 5924 5925 5926 5926 5927 5927 5928 5928 5927 5927 5926 5924 5923 5921 5919 5918 5916 5915 5913 5912 5911 5909 5908 5907 5906 5905 5904 5902 5901 5900 5899 5898 5897 5896 5895 5894 5894 5893 5893 5892 5892 5892 5893 5893 5894 5894 5894 5894
5921 5923 5924 5925 5926 5927 5927 5928 5928 5927 5927 5926 5925 5923 5922 5920 5919 5917 5915 5914 5912 5911 5910 5909 5908 5906 5905 5903 5902 5901 5900 5899 5898 5897 5896 5895 5894 5893 5892 5892 5891 5891 5891 5891 5891 5891 5892 5892 5893
5919 5921 5923 5924 5925 5926 5927 5927 5927 5927 5926 5926 5925 5924 5922 5920 5919 5917 5916 5914 5913 5911 5910 5908 5907 5906 5904 5903 5902 5901 5900 5898 5897 5896 5895 5894 5893 5892 5891 5890 5890 5889 5889 5889 5889 5889 5890 5891 5891
5917 5920 5922 5923 5924 5925 5926 5927 5927 5926 5926 5926 5925 5924 5923 5921 5919 5917 5916 5915 5913 5911 5909 5908 5907 5906 5904 5902 5901 5900 5899 5897 5896 5895 5894 5893 5892 5891 5890 5889 5888 5887 5887 5887 5887 5887 5887 5888 5888
5915 5918 5920 5921 5922 5923 5925 5926 5926 5926 5925 5925 5925 5924 5922 5921 5919 5917 5916 5914 5912 5911 5909 5908 5907 5905 5903 5902 5900 5899 5898 5897 5895 5894 5893 5892 5890 5889 5888 5887 5886 5885 5885 5884 5884 5884 5884 5885 5885
5913 5915 5917 5918 5920 5921 5922 5924 5926 5925 5924 5924 5924 5923 5922 5920 5918 5917 5915 5914 5912 5911 5909 5908 5906 5904 5902 5901 5900 5898 5897 5896 5895 5893 5892 5891 5889 5888 5886 5885 5884 5883 5883 5882 5881 5881 5882 5882 5882
5910 5912 5914 5915 5917 5919 5920 5922 5924 5924 5924 5923 5923 5922 5921 5919 5917 5916 5915 5913 5912 5910 5909 5907 5905 5903 5902 5900 5899 5898 5897 5895 5894 5892 5891 5890 5888 5887 5885 5884 5882 5881 5880 5879 5878 5878 5879 5879 5879
5906 5909 5911 5912 5914 5917 5918 5919 5922 5922 5922 5922 5921 5920 5919 5918 5916 5915 5913 5911 5910 5910 5909 5907 5905 5903 5901 5899 5898 5897 5896 5894 5893 5891 5890 5889 5887 5886 5884 5883 5881 5879 5878 5877 5876 5876 5876 5876 5875
5902 5905 5908 5910 5912 5914 5915 5917 5920 5920 5920 5920 5919 5919 5918 5917 5915 5914 5913 5911 5910 5909 5908 5906 5904 5902 5900 5898 5897 5895 5894 5893 5892 5890 5889 5887 5886 5884 5883 5881 5879 5877 5876 5875 5874 5873 5872 5872 5872
5898 5901 5904 5907 5909 5911 5913 5915 5917 5918 5918 5918 5918 5917 5916 5915 5914 5913 5912 5910 5909 5908 5906 5905 5903 5901 5899 5897 5896 5894 5893 5892 5890 5889 5887 5885 5884 5882 5881 5879 5877 5876 5874 5873 5871 5870 5869 5869 5868
5894 5897 5900 5902 5905 5907 5910 5912 5914 5915 5916 5916 5916 5915 5915 5914 5913 5912 5911 5909 5907 5906 5904 5903 5902 5900 5899 5897 5895 5894 5892 5890 5889 5887 5885 5884 5882 5881 5879 5877 5875 5873 5872 5870 5869 5868 5867 5866 5865
5889 5893 5895 5898 5901 5904 5906 5911 5911 5912 5913 5914 5913 5913 5913 5912 5911 5910 5909 5907 5906 5904 5903 5901 5900 5899 5898 5896 5894 5892 5891 5889 5887 5886 5884 5882 5880 5879 5877 5875 5873 5871 5869 5868 5867 5865 5864 5863 5862
5884 5888 5892 5895 5897 5900 5902 5908 5908 5909 5910 5910 5911 5911 5911 5910 5909 5908 5907 5906 5904 5903 5901 5900 5898 5897 5896 5894 5893 5891 5889 5888 5886 5884 5882 5881 5879 5877 5875 5873 5871 5869 5867 5866 5864 5863 5862 5860 5859